When you browse on this site, cookies collect data to enhance your experience and personalize the content and advertising you see.
Visit our Privacy Policy to learn more. By continuing to use the site, you agree to this use of cookies and data.
  • In Schweiz
  • Länderverzeichnis
  • Für 7 Tage
  • Wassertemperatur
  • Satellitenkarten
  • Wetterkarte
  • Widgets
  • user-avatar
    Anmelden

    Stündliche Wetter Zürich

    Heute, 25 April, Donnerstag

    Zeit Temperatur Niederschläge Wind Luftdruck Luftfeuchtigkeit
    00:00 +9°C° 0 mm 1 m/S 715 mmHg 91%
    01:00 +8°C° 0 mm 1 m/S 716 mmHg 91%
    02:00 +8°C° 0 mm 1 m/S 715 mmHg 90%
    03:00 +8°C° 0 mm 1 m/S 715 mmHg 89%
    04:00 +7°C° 0 mm 1 m/S 715 mmHg 88%
    05:00 +8°C° 0 mm 1 m/S 715 mmHg 85%
    06:00 +9°C° 0 mm 1 m/S 715 mmHg 81%
    07:00 +10°C° 0 mm 1 m/S 715 mmHg 78%
    08:00 +13°C° 0 mm 1 m/S 716 mmHg 67%
    09:00 +16°C° 0 mm 1 m/S 716 mmHg 56%
    10:00 +20°C° 0 mm 1 m/S 716 mmHg 44%
    11:00 +20°C° 0 mm 2 m/S 716 mmHg 40%
    12:00 +21°C° 0 mm 2 m/S 716 mmHg 36%
    13:00 +22°C° 0 mm 3 m/S 715 mmHg 32%
    14:00 +22°C° 0 mm 3 m/S 715 mmHg 33%
    15:00 +22°C° 0 mm 3 m/S 715 mmHg 35%
    16:00 +21°C° 0 mm 4 m/S 715 mmHg 36%
    17:00 +19°C° 0 mm 3 m/S 715 mmHg 45%
    18:00 +17°C° 0 mm 2 m/S 715 mmHg 54%
    19:00 +15°C° 0 mm 1 m/S 715 mmHg 62%
    20:00 +13°C° 0 mm 1 m/S 715 mmHg 70%
    21:00 +12°C° 0 mm 1 m/S 715 mmHg 77%
    22:00 +10°C° 0 mm 1 m/S 715 mmHg 84%
    23:00 +10°C° 0 mm 1 m/S 715 mmHg 87%

    Morgen, 26 April, Freitag

    Zeit Temperatur Niederschläge Wind Luftdruck Luftfeuchtigkeit
    00:00 +9°C° 0 mm 1 m/S 715 mmHg 90%
    01:00 +9°C° 0 mm 1 m/S 715 mmHg 92%
    02:00 +9°C° 0 mm 1 m/S 715 mmHg 93%
    03:00 +9°C° 0 mm 1 m/S 715 mmHg 93%
    04:00 +9°C° 0 mm 1 m/S 715 mmHg 94%
    05:00 +8°C° 0.5 mm 1 m/S 715 mmHg 95%
    06:00 +8°C° 0.5 mm 1 m/S 715 mmHg 95%
    07:00 +7°C° 0.5 mm 2 m/S 715 mmHg 96%
    08:00 +6°C° 4.2 mm 2 m/S 715 mmHg 96%
    09:00 +5°C° 4.2 mm 3 m/S 716 mmHg 96%
    10:00 +4°C° 4.2 mm 4 m/S 717 mmHg 96%
    11:00 +4°C° 2.1 mm 4 m/S 717 mmHg 95%
    12:00 +5°C° 2.1 mm 4 m/S 718 mmHg 95%
    13:00 +5°C° 2.1 mm 3 m/S 719 mmHg 94%
    14:00 +7°C° 0.6 mm 3 m/S 720 mmHg 92%
    15:00 +7°C° 0.6 mm 3 m/S 720 mmHg 90%
    16:00 +8°C° 0.6 mm 3 m/S 720 mmHg 88%
    17:00 +7°C° 0.1 mm 3 m/S 720 mmHg 88%
    18:00 +7°C° 0.1 mm 2 m/S 721 mmHg 87%
    19:00 +7°C° 0.1 mm 2 m/S 721 mmHg 86%
    20:00 +6°C° 0 mm 2 m/S 721 mmHg 86%
    21:00 +5°C° 0 mm 2 m/S 721 mmHg 85%
    22:00 +5°C° 0 mm 1 m/S 722 mmHg 85%
    23:00 +5°C° 0 mm 1 m/S 722 mmHg 84%

    übermorgen, 27 April, Samstag

    Zeit Temperatur Niederschläge Wind Luftdruck Luftfeuchtigkeit
    00:00 +4°C° 0 mm 1 m/S 722 mmHg 83%
    01:00 +4°C° 0 mm 1 m/S 722 mmHg 83%
    02:00 +4°C° 0 mm 1 m/S 722 mmHg 81%
    03:00 +3°C° 0 mm 2 m/S 722 mmHg 80%
    04:00 +2°C° 0 mm 2 m/S 722 mmHg 78%
    05:00 +4°C° 0.3 mm 1 m/S 721 mmHg 80%
    06:00 +5°C° 0.3 mm 1 m/S 721 mmHg 83%
    07:00 +6°C° 0.3 mm 1 m/S 721 mmHg 85%
    08:00 +6°C° 0.4 mm 2 m/S 721 mmHg 84%
    09:00 +8°C° 0.4 mm 3 m/S 721 mmHg 82%
    10:00 +8°C° 0.4 mm 4 m/S 721 mmHg 81%
    11:00 +10°C° 0.1 mm 4 m/S 721 mmHg 76%
    12:00 +11°C° 0.1 mm 4 m/S 720 mmHg 70%
    13:00 +10°C° 0.1 mm 5 m/S 720 mmHg 65%
    14:00 +10°C° 0.5 mm 5 m/S 720 mmHg 71%
    15:00 +9°C° 0.5 mm 5 m/S 719 mmHg 77%
    16:00 +9°C° 0.5 mm 5 m/S 719 mmHg 83%
    17:00 +8°C° 0.4 mm 4 m/S 719 mmHg 85%
    18:00 +7°C° 0.4 mm 4 m/S 719 mmHg 88%
    19:00 +6°C° 0.4 mm 4 m/S 719 mmHg 90%
    20:00 +5°C° 0.1 mm 4 m/S 719 mmHg 91%
    21:00 +5°C° 0.1 mm 4 m/S 720 mmHg 91%
    22:00 +4°C° 0.1 mm 4 m/S 720 mmHg 91%
    23:00 +4°C° 0.2 mm 4 m/S 720 mmHg 91%

    28 April, Sonntag

    Zeit Temperatur Niederschläge Wind Luftdruck Luftfeuchtigkeit
    00:00 +4°C° 0.2 mm 3 m/S 720 mmHg 90%
    01:00 +4°C° 0.2 mm 3 m/S 720 mmHg 90%
    02:00 +4°C° 0.1 mm 3 m/S 719 mmHg 90%
    03:00 +4°C° 0.1 mm 3 m/S 719 mmHg 90%
    04:00 +4°C° 0.1 mm 2 m/S 719 mmHg 91%
    05:00 +5°C° 0.1 mm 2 m/S 720 mmHg 89%
    06:00 +5°C° 0.1 mm 2 m/S 720 mmHg 88%
    07:00 +6°C° 0.1 mm 2 m/S 720 mmHg 87%
    08:00 +7°C° 0.2 mm 3 m/S 721 mmHg 81%
    09:00 +8°C° 0.2 mm 3 m/S 721 mmHg 74%
    10:00 +8°C° 0.2 mm 4 m/S 721 mmHg 68%
    11:00 +8°C° 0.2 mm 4 m/S 721 mmHg 72%
    12:00 +9°C° 0.2 mm 3 m/S 721 mmHg 76%
    13:00 +9°C° 0.2 mm 3 m/S 721 mmHg 81%
    14:00 +9°C° 0.5 mm 3 m/S 721 mmHg 80%
    15:00 +10°C° 0.5 mm 2 m/S 721 mmHg 79%
    16:00 +10°C° 0.5 mm 2 m/S 721 mmHg 78%
    17:00 +10°C° 0.3 mm 2 m/S 721 mmHg 81%
    18:00 +9°C° 0.3 mm 2 m/S 721 mmHg 84%
    19:00 +9°C° 0.3 mm 1 m/S 722 mmHg 87%
    20:00 +8°C° 0 mm 1 m/S 722 mmHg 89%
    21:00 +6°C° 0 mm 1 m/S 722 mmHg 90%
    22:00 +5°C° 0 mm 1 m/S 723 mmHg 92%
    23:00 +5°C° 0 mm 1 m/S 723 mmHg 92%

    29 April, Montag

    Zeit Temperatur Niederschläge Wind Luftdruck Luftfeuchtigkeit
    00:00 +4°C° 0 mm 1 m/S 723 mmHg 92%
    01:00 +4°C° 0 mm 1 m/S 723 mmHg 91%
    02:00 +4°C° 0 mm 1 m/S 723 mmHg 91%
    03:00 +4°C° 0 mm 1 m/S 723 mmHg 91%
    04:00 +3°C° 0 mm 0 m/S 723 mmHg 91%
    05:00 +4°C° 0 mm 0 m/S 723 mmHg 89%
    06:00 +5°C° 0 mm 0 m/S 723 mmHg 88%
    07:00 +5°C° 0 mm 0 m/S 723 mmHg 86%
    08:00 +8°C° 0 mm 0 m/S 722 mmHg 79%
    09:00 +11°C° 0 mm 1 m/S 722 mmHg 72%
    10:00 +13°C° 0 mm 1 m/S 722 mmHg 65%
    11:00 +14°C° 0 mm 1 m/S 722 mmHg 59%
    12:00 +15°C° 0 mm 2 m/S 722 mmHg 53%
    13:00 +16°C° 0 mm 2 m/S 721 mmHg 47%
    14:00 +16°C° 0.1 mm 2 m/S 721 mmHg 51%
    15:00 +16°C° 0.1 mm 3 m/S 721 mmHg 56%
    16:00 +14°C° 0.1 mm 3 m/S 720 mmHg 61%
    17:00 +14°C° 0.2 mm 2 m/S 720 mmHg 70%
    18:00 +13°C° 0.2 mm 1 m/S 720 mmHg 80%
    19:00 +11°C° 0.2 mm 1 m/S 720 mmHg 90%
    20:00 +10°C° 0 mm 1 m/S 720 mmHg 91%
    21:00 +8°C° 0 mm 0 m/S 721 mmHg 92%
    22:00 +7°C° 0 mm 0 m/S 721 mmHg 94%
    23:00 +7°C° 0 mm 0 m/S 720 mmHg 94%

    30 April, Dienstag

    Zeit Temperatur Niederschläge Wind Luftdruck Luftfeuchtigkeit
    00:00 +7°C° 0 mm 0 m/S 720 mmHg 95%
    01:00 +7°C° 0 mm 0 m/S 720 mmHg 95%
    02:00 +8°C° 0 mm 1 m/S 720 mmHg 96%
    03:00 +8°C° 0 mm 1 m/S 720 mmHg 96%
    04:00 +8°C° 0 mm 1 m/S 719 mmHg 97%
    05:00 +9°C° 0 mm 1 m/S 719 mmHg 96%
    06:00 +9°C° 0 mm 1 m/S 719 mmHg 96%
    07:00 +10°C° 0 mm 1 m/S 719 mmHg 95%
    08:00 +9°C° 0 mm 2 m/S 719 mmHg 92%
    09:00 +10°C° 0 mm 2 m/S 719 mmHg 89%
    10:00 +11°C° 0 mm 3 m/S 719 mmHg 87%
    11:00 +12°C° 0 mm 3 m/S 718 mmHg 80%
    12:00 +13°C° 0 mm 3 m/S 718 mmHg 73%
    13:00 +14°C° 0 mm 3 m/S 718 mmHg 67%
    14:00 +16°C° 0 mm 3 m/S 718 mmHg 63%
    15:00 +17°C° 0 mm 3 m/S 718 mmHg 60%
    16:00 +17°C° 0 mm 3 m/S 718 mmHg 57%
    17:00 +16°C° 0 mm 3 m/S 718 mmHg 63%
    18:00 +15°C° 0 mm 2 m/S 718 mmHg 69%
    19:00 +13°C° 0 mm 2 m/S 718 mmHg 75%
    20:00 +12°C° 0 mm 1 m/S 718 mmHg 81%
    21:00 +10°C° 0 mm 1 m/S 718 mmHg 86%
    22:00 +9°C° 0 mm 1 m/S 719 mmHg 91%
    23:00 +8°C° 0 mm 1 m/S 719 mmHg 92%
    Mehr zeigen